When you browse on this site, cookies collect data to enhance your experience and personalize the content and advertising you see.
Visit our Privacy Policy to learn more. By continuing to use the site, you agree to this use of cookies and data.
  • In Hungary
  • List of Countries
  • For 7 days
  • Water Temperature
  • Satellite Maps
  • Weather Map
  • News
  • Weather Widgets
  • user-avatar
    Login

    Hourly Weather Rincon de la Victoria

    Today, 18 November, Sunday

    Time Temperature Precipitation Wind Pressure Humidity
    00:00 +15°C° 0 mm 6 mps 745 mmHg 88%
    01:00 +15°C° 0.1 mm 5 mps 745 mmHg 87%
    02:00 +15°C° 0.1 mm 5 mps 744 mmHg 86%
    03:00 +14°C° 0.1 mm 5 mps 744 mmHg 86%
    04:00 +14°C° 0.1 mm 5 mps 744 mmHg 85%
    05:00 +14°C° 0.1 mm 5 mps 743 mmHg 84%
    06:00 +14°C° 0.1 mm 5 mps 743 mmHg 84%
    07:00 +15°C° 0.2 mm 6 mps 743 mmHg 81%
    08:00 +15°C° 0.2 mm 6 mps 743 mmHg 79%
    09:00 +15°C° 0.2 mm 6 mps 743 mmHg 76%
    10:00 +15°C° 2 mm 6 mps 743 mmHg 79%
    11:00 +15°C° 2 mm 5 mps 743 mmHg 82%
    12:00 +15°C° 2 mm 5 mps 743 mmHg 86%
    13:00 +15°C° 1.9 mm 4 mps 742 mmHg 85%
    14:00 +15°C° 1.9 mm 4 mps 742 mmHg 85%
    15:00 +16°C° 1.9 mm 3 mps 742 mmHg 85%
    16:00 +14°C° 1.5 mm 3 mps 742 mmHg 87%
    17:00 +14°C° 1.5 mm 3 mps 742 mmHg 89%
    18:00 +14°C° 1.5 mm 3 mps 741 mmHg 91%
    19:00 +14°C° 0.6 mm 3 mps 741 mmHg 90%
    20:00 +14°C° 0.6 mm 3 mps 742 mmHg 90%
    21:00 +13°C° 0.6 mm 3 mps 742 mmHg 89%
    22:00 +14°C° 0.2 mm 2 mps 741 mmHg 90%
    23:00 +14°C° 0.2 mm 2 mps 741 mmHg 90%

    Tomorrow, 19 November, Monday

    Time Temperature Precipitation Wind Pressure Humidity
    00:00 +14°C° 0.2 mm 2 mps 741 mmHg 90%
    01:00 +14°C° 0.2 mm 2 mps 741 mmHg 91%
    02:00 +13°C° 0.2 mm 2 mps 741 mmHg 91%
    03:00 +12°C° 0.2 mm 3 mps 741 mmHg 92%
    04:00 +12°C° 0.4 mm 3 mps 741 mmHg 92%
    05:00 +12°C° 0.4 mm 3 mps 741 mmHg 92%
    06:00 +12°C° 0.4 mm 3 mps 741 mmHg 92%
    07:00 +13°C° 0.3 mm 3 mps 741 mmHg 90%
    08:00 +13°C° 0.3 mm 4 mps 741 mmHg 88%
    09:00 +13°C° 0.3 mm 4 mps 742 mmHg 87%
    10:00 +14°C° 0.1 mm 4 mps 741 mmHg 83%
    11:00 +14°C° 0.1 mm 5 mps 741 mmHg 79%
    12:00 +15°C° 0.1 mm 5 mps 741 mmHg 75%
    13:00 +15°C° 0.2 mm 6 mps 741 mmHg 77%
    14:00 +15°C° 0.2 mm 6 mps 741 mmHg 78%
    15:00 +15°C° 0.2 mm 6 mps 741 mmHg 79%
    16:00 +14°C° 0.3 mm 6 mps 741 mmHg 82%
    17:00 +14°C° 0.3 mm 6 mps 742 mmHg 85%
    18:00 +13°C° 0.3 mm 6 mps 742 mmHg 89%
    19:00 +13°C° 0.1 mm 6 mps 743 mmHg 89%
    20:00 +13°C° 0.1 mm 6 mps 743 mmHg 90%
    21:00 +13°C° 0.1 mm 5 mps 744 mmHg 90%
    22:00 +13°C° 0.1 mm 5 mps 744 mmHg 91%
    23:00 +13°C° 0.1 mm 5 mps 744 mmHg 91%

    Day after tomorrow, 20 November, Tuesday

    Time Temperature Precipitation Wind Pressure Humidity
    00:00 +13°C° 0.1 mm 5 mps 744 mmHg 91%
    01:00 +13°C° 0 mm 5 mps 744 mmHg 92%
    02:00 +12°C° 0 mm 5 mps 744 mmHg 92%
    03:00 +12°C° 0 mm 5 mps 744 mmHg 93%
    04:00 +12°C° 0 mm 5 mps 744 mmHg 93%
    05:00 +12°C° 0 mm 5 mps 744 mmHg 93%
    06:00 +10°C° 0 mm 5 mps 744 mmHg 93%
    07:00 +12°C° 0 mm 5 mps 744 mmHg 89%
    08:00 +13°C° 0 mm 4 mps 745 mmHg 86%
    09:00 +14°C° 0 mm 4 mps 745 mmHg 82%
    10:00 +14°C° 0.3 mm 5 mps 745 mmHg 83%
    11:00 +14°C° 0.3 mm 5 mps 745 mmHg 83%
    12:00 +15°C° 0.3 mm 5 mps 745 mmHg 84%
    13:00 +15°C° 0.3 mm 6 mps 745 mmHg 82%
    14:00 +15°C° 0.3 mm 6 mps 745 mmHg 79%
    15:00 +15°C° 0.3 mm 6 mps 744 mmHg 77%
    16:00 +15°C° 0 mm 6 mps 745 mmHg 80%
    17:00 +14°C° 0 mm 6 mps 745 mmHg 83%
    18:00 +13°C° 0 mm 6 mps 746 mmHg 85%
    19:00 +13°C° 0.1 mm 6 mps 746 mmHg 87%
    20:00 +13°C° 0.1 mm 6 mps 747 mmHg 88%
    21:00 +12°C° 0.1 mm 5 mps 748 mmHg 89%
    22:00 +12°C° 0.1 mm 5 mps 748 mmHg 90%
    23:00 +12°C° 0.1 mm 5 mps 748 mmHg 91%

    21 November, Wednesday

    Time Temperature Precipitation Wind Pressure Humidity
    00:00 +12°C° 0.1 mm 5 mps 748 mmHg 92%
    01:00 +12°C° 0.1 mm 5 mps 748 mmHg 91%
    02:00 +12°C° 0.1 mm 4 mps 748 mmHg 91%
    03:00 +12°C° 0.1 mm 4 mps 748 mmHg 90%
    04:00 +12°C° 0.1 mm 4 mps 748 mmHg 90%
    05:00 +12°C° 0.1 mm 4 mps 748 mmHg 91%
    06:00 +11°C° 0.1 mm 4 mps 748 mmHg 91%
    07:00 +12°C° 0 mm 4 mps 749 mmHg 86%
    08:00 +12°C° 0 mm 3 mps 749 mmHg 82%
    09:00 +13°C° 0 mm 3 mps 750 mmHg 77%
    10:00 +14°C° 0 mm 3 mps 750 mmHg 72%
    11:00 +14°C° 0 mm 3 mps 750 mmHg 66%
    12:00 +15°C° 0 mm 4 mps 750 mmHg 61%
    13:00 +16°C° 0 mm 3 mps 749 mmHg 61%
    14:00 +16°C° 0 mm 3 mps 749 mmHg 60%
    15:00 +16°C° 0 mm 3 mps 749 mmHg 60%
    16:00 +16°C° 0.1 mm 3 mps 749 mmHg 65%
    17:00 +14°C° 0.1 mm 3 mps 749 mmHg 71%
    18:00 +13°C° 0.1 mm 4 mps 750 mmHg 77%
    19:00 +13°C° 0.1 mm 3 mps 750 mmHg 80%
    20:00 +12°C° 0.1 mm 3 mps 750 mmHg 84%
    21:00 +12°C° 0.1 mm 3 mps 751 mmHg 87%
    22:00 +12°C° 0.1 mm 3 mps 751 mmHg 89%
    23:00 +12°C° 0.1 mm 3 mps 750 mmHg 90%

    22 November, Thursday

    Time Temperature Precipitation Wind Pressure Humidity
    00:00 +13°C° 0.1 mm 2 mps 750 mmHg 91%
    01:00 +12°C° 0 mm 2 mps 750 mmHg 92%
    02:00 +12°C° 0 mm 2 mps 750 mmHg 92%
    03:00 +12°C° 0 mm 2 mps 750 mmHg 92%
    04:00 +12°C° 0.1 mm 1 mps 750 mmHg 93%
    05:00 +12°C° 0.1 mm 1 mps 750 mmHg 93%
    06:00 +12°C° 0.1 mm 1 mps 750 mmHg 93%
    07:00 +12°C° 0 mm 1 mps 750 mmHg 90%
    08:00 +13°C° 0 mm 1 mps 751 mmHg 88%
    09:00 +14°C° 0 mm 1 mps 751 mmHg 85%
    10:00 +14°C° 0.2 mm 1 mps 751 mmHg 80%
    11:00 +15°C° 0.2 mm 2 mps 751 mmHg 76%
    12:00 +16°C° 0.2 mm 2 mps 751 mmHg 72%
    13:00 +16°C° 0.2 mm 2 mps 751 mmHg 74%
    14:00 +15°C° 0.2 mm 2 mps 751 mmHg 76%
    15:00 +15°C° 0.2 mm 1 mps 750 mmHg 78%
    16:00 +15°C° 0.1 mm 1 mps 751 mmHg 81%
    17:00 +14°C° 0.1 mm 1 mps 751 mmHg 84%
    18:00 +14°C° 0.1 mm 1 mps 751 mmHg 87%
    19:00 +13°C° 0 mm 1 mps 752 mmHg 88%
    20:00 +13°C° 0 mm 1 mps 752 mmHg 90%
    21:00 +13°C° 0 mm 1 mps 752 mmHg 91%
    22:00 +13°C° 0 mm 1 mps 752 mmHg 91%
    23:00 +13°C° 0 mm 1 mps 753 mmHg 91%

    23 November, Friday

    Time Temperature Precipitation Wind Pressure Humidity
    00:00 +13°C° 0 mm 1 mps 753 mmHg 92%
    01:00 +13°C° 0 mm 1 mps 752 mmHg 91%
    02:00 +13°C° 0 mm 1 mps 752 mmHg 90%
    03:00 +13°C° 0 mm 1 mps 752 mmHg 89%
    04:00 +12°C° 0 mm 1 mps 752 mmHg 89%
    05:00 +12°C° 0 mm 1 mps 752 mmHg 88%
    06:00 +12°C° 0 mm 1 mps 752 mmHg 88%
    07:00 +13°C° 0 mm 1 mps 753 mmHg 84%
    08:00 +14°C° 0 mm 1 mps 753 mmHg 80%
    09:00 +14°C° 0 mm 1 mps 753 mmHg 76%
    10:00 +15°C° 0 mm 1 mps 753 mmHg 71%
    11:00 +18°C° 0 mm 1 mps 753 mmHg 66%
    12:00 +19°C° 0 mm 1 mps 753 mmHg 61%
    13:00 +19°C° 0 mm 1 mps 752 mmHg 62%
    14:00 +19°C° 0 mm 1 mps 752 mmHg 62%
    15:00 +19°C° 0 mm 1 mps 752 mmHg 62%
    16:00 +18°C° 0.1 mm 1 mps 752 mmHg 68%
    17:00 +16°C° 0.1 mm 1 mps 752 mmHg 73%
    18:00 +15°C° 0.1 mm 1 mps 752 mmHg 79%
    19:00 +15°C° 0.1 mm 1 mps 752 mmHg 80%
    20:00 +15°C° 0.1 mm 1 mps 752 mmHg 81%
    21:00 +14°C° 0.1 mm 1 mps 753 mmHg 82%
    22:00 +14°C° 0.3 mm 1 mps 753 mmHg 83%
    23:00 +14°C° 0.3 mm 1 mps 753 mmHg 84%
    Show more